Wind_Speed
40 40 39 37 37 36 31 29 29 26 23 22 25 24 19 19 22 22 28 35 35 35 33 32 31 32 33 35 35 36 37 35 35 34 38 37 33 33
40 41 39 37 38 34 31 29 26 21 18 19 19 20 18 20 22 23 25 24 27 31 35 36 34 31 31 35 36 37 38 38 39 40 40 38 36 36
38 38 37 35 34 32 29 29 28 24 21 17 17 19 18 21 24 22 22 20 19 20 23 23 22 28 32 33 34 36 38 38 39 41 41 41 40 41
31 31 29 28 30 29 29 29 27 26 23 23 20 21 22 24 22 21 22 23 22 24 24 25 29 31 33 34 36 37 38 40 40 41 42 44 44 44
25 25 24 25 25 24 26 23 22 20 19 21 23 20 18 17 17 18 18 18 20 22 22 24 26 28 30 32 34 36 38 39 42 43 45 47 47 48
23 22 23 24 18 22 20 17 19 15 16 18 16 13 14 14 15 15 17 21 24 25 25 26 26 27 27 29 32 34 36 37 40 42 43 45 46 48
23 21 25 26 21 15 15 14 12 10 11 14 15 13 14 14 15 16 17 18 20 22 24 26 27 28 30 31 33 34 36 38 41 44 45 46 47 48
20 20 21 21 23 19 15 11 11 14 16 16 14 13 13 14 14 14 15 16 18 22 25 27 28 29 31 33 36 38 40 42 45 47 49 51 52 54
21 21 20 19 18 16 12 12 13 14 14 14 13 11 10 10 11 13 15 17 18 20 22 25 27 29 31 33 36 37 40 42 44 46 48 50 51 54
19 18 17 16 16 13 11 13 14 14 12 11 10 8 8 9 10 11 13 15 18 21 24 27 29 29 32 34 37 39 42 45 47 49 52 54 56 56
19 16 15 15 15 14 14 14 13 12 12 11 9 9 8 9 10 12 14 15 18 21 23 25 26 27 28 30 33 36 39 42 43 45 48 51 55 58
21 17 16 16 15 14 14 13 13 14 13 11 11 9 9 9 9 11 12 13 14 15 17 19 19 20 21 24 27 30 31 32 32 34 38 43 48 53
18 17 16 18 18 17 15 14 14 14 14 13 12 9 8 6 5 7 10 13 14 15 16 17 17 19 21 25 27 29 29 31 32 34 35 37 39 41
18 17 18 21 21 16 14 14 15 15 15 14 11 10 7 4 5 7 9 11 13 15 17 19 22 24 25 27 29 31 32 32 32 33 34 34 35 37
19 20 20 21 19 15 16 16 16 16 15 13 11 8 6 6 7 8 7 9 13 16 18 21 25 26 27 28 30 32 34 35 32 29 29 30 31 33
20 20 21 21 19 14 15 16 16 16 16 13 9 8 7 7 8 7 6 7 12 17 20 21 21 23 25 27 31 33 32 31 31 29 27 28 30 30
21 19 18 17 17 17 17 16 15 15 14 11 10 9 9 8 8 9 6 7 12 17 17 18 22 24 25 28 33 32 27 24 23 25 26 27 28 30
21 17 15 16 16 16 15 14 13 13 13 13 12 11 10 8 9 9 8 9 13 14 16 21 23 24 26 29 32 30 24 21 19 17 19 23 27 29
22 18 17 18 17 15 14 13 13 14 15 14 13 11 9 8 8 8 8 11 12 12 15 20 24 25 25 27 30 31 27 23 21 19 17 19 22 25
22 20 18 18 17 15 14 14 15 15 15 15 14 12 11 10 10 10 10 12 13 14 17 20 24 27 27 27 28 29 29 25 21 21 21 20 19 20
21 20 19 19 18 16 15 15 15 15 15 16 15 15 14 13 13 14 16 17 17 19 21 22 24 27 29 27 27 28 29 30 27 23 22 21 21 21
19 18 17 16 16 15 15 16 15 15 17 18 18 18 18 19 19 20 22 24 25 25 24 24 24 25 27 28 27 27 27 29 29 28 27 24 22 22
16 14 13 14 14 14 14 15 17 17 18 20 20 19 20 21 22 23 25 25 25 25 25 24 24 24 25 26 27 27 27 27 28 30 29 29 27 25
Wind_Direction
263 264 267 266 265 264 262 263 262 258 257 245 230 233 237 254 246 258 258 249 244 236 232 234 239 242 241 239 238 238 239 239 239 240 239 232 228 234
262 263 263 264 266 262 259 253 247 240 238 228 233 236 239 236 251 263 273 273 265 253 243 239 237 237 239 242 240 242 243 242 241 241 242 239 236 243
265 264 264 264 263 260 250 240 225 225 226 229 233 231 245 256 267 273 271 263 250 249 251 256 245 243 243 243 242 242 244 244 244 245 247 248 245 247
270 270 262 258 256 248 238 229 219 220 227 242 252 253 262 268 265 258 254 251 249 249 246 249 250 250 249 248 247 248 248 248 246 246 247 247 247 246
259 259 262 255 236 227 216 219 227 225 238 255 262 256 256 256 249 243 244 249 257 258 257 258 257 256 256 256 253 251 252 253 253 253 253 251 250 251
255 259 259 252 228 218 225 225 239 243 260 253 239 225 230 232 238 252 258 257 258 260 266 267 268 266 263 260 258 258 258 257 259 260 262 261 259 259
241 249 249 245 239 224 222 234 234 217 211 210 214 225 237 247 253 257 261 262 266 271 273 272 272 272 271 270 269 268 266 265 263 260 259 261 263 262
256 246 238 235 241 222 214 208 198 199 200 210 223 235 245 252 257 267 277 281 280 279 277 275 274 274 273 272 271 271 270 269 268 266 265 264 264 264
258 243 239 245 249 228 202 194 203 209 208 218 227 233 242 259 275 281 282 281 278 275 274 275 275 275 275 274 272 271 270 269 268 268 266 265 264 262
248 247 249 238 229 217 207 207 207 204 203 209 222 235 251 266 273 278 282 287 289 288 286 284 282 280 278 278 278 277 275 273 271 269 267 265 263 261
243 240 237 231 230 233 224 210 199 201 203 208 222 236 245 260 271 277 282 287 289 291 290 289 288 285 283 283 283 282 280 277 276 275 274 272 268 264
242 236 231 231 227 217 210 207 208 210 210 214 223 231 242 256 270 280 292 300 302 303 302 303 302 298 296 294 293 291 288 286 286 286 284 280 275 269
235 228 218 205 194 182 183 195 204 208 213 214 215 221 231 252 288 312 323 325 327 330 329 330 331 329 321 311 306 305 302 299 297 294 291 287 283 278
213 200 189 183 180 186 201 214 216 211 209 213 216 220 232 266 312 325 337 343 342 342 344 342 338 333 328 322 312 303 295 292 294 293 292 291 286 283
205 201 193 188 192 203 204 206 209 212 215 219 222 232 249 274 294 310 336 350 345 341 337 335 333 328 322 320 319 310 298 290 286 287 291 292 289 286
194 192 190 193 200 203 203 210 219 223 220 222 232 248 253 267 289 299 320 341 339 336 338 342 342 338 330 326 327 321 309 299 291 284 289 296 296 292
191 186 189 197 208 211 211 220 229 224 223 229 241 251 255 260 278 282 291 325 339 338 346 354 352 352 349 342 342 336 329 318 302 290 289 297 304 302
197 195 194 192 194 200 212 226 228 224 229 237 249 259 265 271 277 278 285 322 341 338 340 346 347 351 352 352 352 347 339 337 333 316 299 298 304 308
198 200 200 197 201 210 220 228 235 238 240 248 259 262 260 258 259 270 301 329 337 327 328 340 345 348 350 355 358 357 352 346 343 336 323 312 312 316
202 208 210 209 211 219 228 233 237 239 242 251 257 256 253 256 261 270 299 327 327 317 318 327 338 345 349 351 354 357 358 357 351 345 336 327 322 322
204 210 213 217 222 229 232 232 233 241 247 253 255 256 258 259 266 276 288 304 316 317 317 322 328 338 344 346 348 351 354 355 354 351 345 339 334 332
199 203 208 217 225 229 232 236 238 245 254 260 259 257 260 265 273 279 284 290 297 307 311 314 320 327 336 340 342 343 345 347 349 349 345 341 335 328
193 198 208 219 227 232 237 243 249 253 261 266 265 263 266 273 279 284 287 285 292 300 304 309 316 323 329 334 338 339 337 333 332 333 334 334 332 329
Height
5729 5728 5728 5728 5728 5729 5731 5733 5735 5737 5739 5741 5743 5744 5745 5747 5748 5748 5749 5750 5753 5756 5760 5765 5768 5772 5774 5777 5779 5781 5783 5785 5788 5790 5792 5793 5795 5799
5717 5717 5716 5716 5716 5717 5720 5723 5726 5730 5734 5735 5736 5738 5739 5742 5743 5744 5744 5746 5748 5751 5754 5756 5759 5762 5765 5768 5770 5772 5775 5777 5780 5781 5783 5785 5786 5787
5706 5705 5704 5704 5704 5707 5710 5713 5717 5723 5727 5730 5731 5732 5733 5736 5736 5736 5737 5740 5743 5745 5747 5750 5753 5756 5758 5760 5762 5764 5766 5768 5770 5771 5772 5775 5775 5775
5696 5694 5694 5695 5697 5700 5701 5705 5710 5715 5720 5723 5726 5727 5729 5730 5730 5731 5733 5735 5737 5739 5740 5743 5746 5748 5750 5752 5754 5755 5757 5758 5760 5762 5763 5765 5766 5767
5689 5689 5689 5691 5691 5692 5693 5699 5703 5708 5713 5718 5720 5721 5722 5723 5725 5726 5729 5731 5732 5734 5734 5736 5738 5740 5741 5743 5744 5745 5746 5749 5750 5751 5753 5754 5755 5757
5683 5685 5686 5687 5688 5691 5693 5697 5701 5705 5709 5712 5714 5715 5717 5719 5721 5723 5724 5726 5728 5729 5729 5730 5731 5732 5733 5734 5734 5735 5736 5737 5738 5739 5740 5741 5743 5746
5680 5680 5681 5684 5686 5688 5690 5695 5698 5700 5704 5707 5709 5711 5713 5715 5717 5718 5719 5720 5721 5722 5723 5724 5725 5725 5724 5725 5725 5726 5726 5727 5727 5728 5728 5728 5730 5733
5679 5679 5679 5680 5683 5684 5686 5690 5694 5697 5699 5703 5705 5707 5709 5712 5714 5714 5715 5715 5715 5717 5717 5717 5717 5717 5716 5716 5716 5716 5715 5714 5715 5715 5715 5715 5716 5717
5673 5676 5676 5678 5680 5680 5683 5687 5691 5694 5696 5698 5701 5704 5706 5708 5709 5710 5711 5711 5711 5711 5711 5710 5709 5709 5707 5705 5704 5703 5702 5701 5700 5700 5700 5699 5699 5700
5670 5671 5673 5673 5675 5677 5680 5684 5688 5691 5693 5695 5698 5701 5702 5704 5706 5707 5706 5705 5703 5703 5702 5702 5700 5699 5696 5693 5692 5690 5688 5686 5685 5684 5684 5683 5682 5682
5666 5667 5668 5670 5672 5675 5679 5682 5684 5688 5691 5693 5695 5697 5699 5701 5702 5702 5701 5701 5700 5697 5695 5692 5689 5687 5685 5682 5680 5677 5675 5673 5671 5668 5666 5664 5663 5663
5660 5662 5665 5666 5668 5671 5676 5679 5682 5686 5688 5690 5692 5695 5696 5698 5697 5697 5696 5696 5694 5691 5688 5685 5682 5678 5676 5673 5670 5666 5664 5661 5658 5654 5651 5647 5645 5644
5655 5657 5659 5663 5665 5670 5674 5678 5681 5683 5685 5688 5691 5692 5693 5693 5693 5692 5690 5688 5686 5683 5680 5677 5674 5670 5666 5663 5659 5656 5652 5649 5645 5641 5637 5634 5632 5630
5651 5653 5655 5660 5663 5668 5672 5675 5678 5680 5683 5686 5686 5688 5689 5688 5687 5687 5686 5684 5681 5678 5675 5672 5668 5664 5660 5656 5652 5647 5643 5639 5635 5631 5627 5623 5620 5617
5647 5649 5653 5657 5661 5666 5670 5673 5676 5678 5680 5681 5682 5683 5683 5683 5684 5683 5681 5679 5677 5675 5672 5669 5665 5660 5655 5650 5645 5640 5634 5629 5626 5623 5618 5614 5610 5606
5644 5646 5650 5655 5658 5661 5665 5669 5672 5674 5675 5676 5677 5678 5679 5680 5680 5678 5677 5675 5674 5672 5668 5664 5659 5655 5649 5643 5637 5630 5624 5619 5615 5613 5610 5606 5602 5597
5640 5643 5647 5651 5654 5658 5663 5666 5668 5670 5671 5672 5674 5675 5676 5676 5675 5674 5673 5671 5669 5666 5662 5659 5655 5649 5643 5637 5630 5623 5616 5611 5607 5605 5603 5601 5596 5591
5637 5640 5643 5647 5651 5656 5660 5662 5664 5666 5668 5670 5671 5671 5672 5671 5671 5670 5668 5666 5663 5661 5658 5655 5651 5646 5640 5634 5627 5620 5613 5608 5603 5599 5598 5595 5591 5587
5634 5637 5640 5644 5648 5652 5655 5658 5660 5662 5665 5666 5667 5667 5667 5667 5667 5666 5663 5661 5658 5657 5655 5652 5648 5643 5637 5631 5624 5617 5610 5604 5600 5596 5594 5591 5588 5583
5630 5634 5637 5641 5644 5648 5651 5654 5656 5658 5660 5661 5662 5662 5662 5662 5662 5661 5659 5657 5656 5654 5651 5648 5644 5638 5632 5627 5621 5615 5609 5604 5599 5595 5591 5588 5584 5581
5627 5630 5634 5638 5641 5644 5647 5650 5652 5653 5655 5656 5656 5656 5656 5656 5656 5655 5655 5653 5651 5649 5646 5643 5639 5634 5628 5623 5618 5613 5608 5603 5599 5595 5591 5587 5582 5578
5623 5627 5630 5634 5637 5640 5642 5644 5646 5648 5649 5650 5650 5650 5650 5650 5650 5649 5648 5647 5646 5644 5641 5638 5634 5630 5625 5620 5615 5611 5606 5601 5597 5593 5589 5585 5581 5577
5620 5623 5627 5630 5633 5636 5638 5639 5641 5642 5644 5644 5645 5645 5644 5643 5643 5643 5642 5640 5639 5637 5635 5632 5629 5625 5621 5617 5612 5608 5603 5598 5594 5589 5585 5581 5577 5574